Location: Squamish
(49.7000°N, 123.1500°W)
Time: 13:14:21
(UTC-08:00)

Daily predictions for brighter satellites

Satellite Brightness Start Highest point End
(mag) Time Altitude Azimuth Time Altitude Azimuth Time Altitude Azimuth
CSL-04 Debris 4.2 16:38:15 10° SSE 16:43:38 75° ENE 16:49:03 10° NNW
CZ-4 R/B 2.0 16:41:53 10° SE 16:45:42 37° ENE 16:49:29 10° N
Cosmos 372 Rocket 4.1 16:40:58 10° SSW 16:46:14 88° WNW 16:51:32 10° NNE
USA 234 4.4 16:42:02 10° ENE 16:47:29 27° SE 16:52:54 10° S
Cosmos 1844 Rocket 2.8 16:42:29 10° SSW 16:48:02 71° ESE 16:53:41 10° NNE
Cosmos 2181 Rocket 4.1 16:43:37 10° S 16:49:59 73° E 16:56:26 10° NNE
Cosmos 1975 Rocket 3.0 16:47:09 10° S 16:51:28 77° E 16:55:50 10° NNE
Meteor 1-12 Rocket 4.5 16:46:01 10° N 16:51:42 52° ENE 16:57:26 10° SSE
Cosmos 1812 3.6 16:50:03 10° SSE 16:53:28 31° E 16:56:54 10° NNE
MOS 1 4.5 16:50:21 10° SE 16:55:47 51° ENE 17:01:14 10° N
CZ-2C R/B 3.8 16:51:31 10° NNE 16:55:56 56° E 17:00:22 10° S
MSX 4.4 16:50:54 10° SE 16:56:03 35° ENE 17:01:13 10° N
ERBS 3.7 16:53:55 10° NW 16:56:48 24° N 16:59:40 10° ENE
NOSS 3-4 (A) 4.1 16:50:34 10° NW 16:57:06 46° NNE 17:04:02 10° ESE
NOSS 3-4 (C) 4.1 16:50:40 10° NW 16:57:12 45° NNE 17:04:07 10° ESE
CZ-2C R/B 2.8 16:52:31 10° SE 16:57:21 46° ENE 17:02:17 10° N
CORIOLIS 4.5 16:53:31 10° SE 16:58:36 43° ENE 17:03:40 10° N
BREEZE-M DEB (TANK) 3.7 16:48:16 10° WSW 16:58:56 85° NNW 17:03:17 10° ENE
Timation 2 Rocket 4.2 16:58:03 10° NNW 17:04:49 62° NE 17:11:38 10° SE
Cosmos 494 Rocket 4.3 17:00:01 10° NNW 17:05:17 77° WSW 17:10:32 10° SSE
SJ-12 4.1 17:02:33 10° SSE 17:06:32 51° ENE 17:10:34 10° N
NOSS 3-3 (A) 4.4 17:02:05 10° SSW 17:08:01 48° ESE 17:14:23 10° NE
NOSS 3-3 (C) 4.5 17:02:12 10° SSW 17:08:07 47° ESE 17:14:28 10° NE
Cosmos 1536 Rocket 4.1 17:04:06 10° SSE 17:08:16 40° E 17:12:28 10° NNE
BREEZE M DEB (TANK) 2.3 17:06:20 10° W 17:08:56 86° S 17:15:17 10° E
ATLAS 2AS CENTAUR R/B 4.0 17:04:15 10° NW 17:12:03 52° WSW 17:19:22 10° SSE
Ariane Rocket 4.2 17:08:10 10° S 17:13:02 47° W 17:17:56 10° NNW
COSMOS 2487 2.4 17:10:42 10° NNW 17:14:17 64° ENE 17:17:51 10° SSE
YAOGAN 1 2.6 17:13:58 10° SSE 17:18:13 58° ENE 17:22:29 10° N
Cosmos 1844 3.7 17:12:42 10° SSW 17:18:15 88° ESE 17:23:52 10° NNE
Cosmos 2297 4.5 17:18:04 10° SSE 17:23:00 32° ESE 17:27:15 13° NE
Okean 1 3.6 17:19:20 10° SSE 17:23:14 48° E 17:27:10 10° NNE
Cosmos 1666 4.0 17:23:18 10° NNE 17:26:08 19° ENE 17:28:58 10° ESE
SPOT 3 Rocket 3.5 17:20:58 10° SSE 17:26:09 79° ENE 17:31:20 10° NNW
SL-8 R/B 4.2 17:21:37 10° SW 17:26:15 51° SSE 17:29:59 15° E
Cosmos 1346 Rocket 3.3 17:25:11 10° SSE 17:28:46 37° E 17:32:01 12° NNE
Cosmos 1455 Rocket 3.4 17:26:27 10° NNW 17:30:51 69° W 17:35:15 10° S
USA 32 4.1 17:25:52 10° S 17:31:05 83° W 17:36:21 10° N
ISS -3.2 17:28:06 10° W 17:31:24 67° N 17:33:23 22° ENE
Cosmos 2278 Rocket 2.2 17:26:34 10° SSW 17:32:11 73° ESE 17:37:44 11° NNE
SMAP 3.0 17:29:13 10° SSE 17:33:52 88° ENE 17:38:34 10° NNW
BREEZE-M DEB (TANK) 1.9 17:31:57 10° WSW 17:34:04 50° SSE 17:35:15 23° E
Meteor 1-18 Rocket 4.2 17:28:30 10° S 17:34:11 81° E 17:40:02 10° NNE
Nadezhda 3 Rocket 4.3 17:29:27 10° SSE 17:35:18 44° E 17:41:14 10° NNE
BREEZE M DEB (TANK) 4.2 17:32:59 10° SSW 17:39:34 24° SSE 17:41:52 15° ESE
EP 2 4.4 17:40:52 10° SW 17:43:30 75° NW 17:44:56 26° NE
Tiangong 1 3.2 17:42:05 10° SSW 17:44:14 18° SSE 17:45:42 13° SE
GEOS 3 Rocket 3.9 17:41:16 12° ESE 17:45:39 46° NE 17:50:33 10° NW
Cosmos 1833 Rocket 2.6 17:40:23 10° NNW 17:46:05 82° ENE 17:51:43 10° SSE
CZ-3B DEB 2.5 17:42:27 10° SW 17:46:32 74° SE 17:53:53 19° ENE
Cosmos 1500 3.3 17:43:55 10° NNW 17:47:46 78° W 17:51:37 10° S
Cosmos 1190 Rocket 4.4 17:43:10 10° NNW 17:48:08 40° ENE 17:53:02 10° SE
Cosmos 1743 2.8 17:44:22 10° N 17:48:12 53° ENE 17:51:58 10° SSE
CZ-3A R/B 3.9 17:47:14 10° WSW 17:52:47 83° NNW 18:13:42 20° ENE
Cosmos 2082 Rocket 2.3 17:47:47 10° NNW 17:53:28 79° WSW 17:59:09 10° SSE
Thor Agena Rocket 3.5 17:49:51 10° NNE 17:55:06 86° ESE 18:00:23 10° SSW
IDEFIX/ARIANE 42P 3.0 17:50:29 10° S 17:55:38 63° W 18:00:48 10° NNW
Cosmos 1809 Rocket 4.5 17:51:09 10° N 17:57:21 85° W 18:03:28 10° S
Cosmos 1726 Rocket 4.2 17:55:13 10° N 17:59:16 33° ENE 18:03:19 10° SE
Okean 1-7 Rocket 3.8 17:55:01 10° SSE 17:59:20 49° E 18:02:18 19° NNE
NOSS 2-1 (D) 4.1 17:56:13 10° S 17:59:45 35° ESE 18:00:41 31° E
NOSS 2-1 (C) 4.1 17:56:53 10° S 18:00:27 34° ESE 18:01:21 31° E
Resurs 01 Rocket 3.8 18:08:22 12° NNE 18:08:22 12° NNE 18:08:50 10° N
Cosmos 1484 Rocket 2.5 18:03:06 10° SSE 18:06:49 82° ENE 18:10:34 10° NNW
ALOS 4.4 18:11:42 12° NNE 18:11:42 12° NNE 18:12:09 10° N
Intercosmos 25 2.8 18:05:44 10° N 18:09:00 86° W 18:12:17 10° S
Cosmos 1975 4.4 18:05:24 10° NNW 18:09:11 38° W 18:12:55 10° SSW
Cosmos 2263 Rocket 4.5 18:06:55 10° WNW 18:10:04 15° NNW 18:13:14 10° N
ATLAS CENTAUR R/B 3.7 18:10:34 10° NNW 18:12:00 11° N 18:12:15 11° N
BREEZE-M R/B 4.2 18:02:50 10° WSW 18:12:55 67° SSE 18:15:17 34° E
Meteor 1-19 Rocket 4.3 18:07:48 10° S 18:13:32 64° E 18:19:21 10° NNE
Cosmos 1934 Rocket 3.9 18:09:38 10° N 18:15:48 63° ENE 18:22:02 10° SSE
Cosmos 1606 Rocket 3.6 18:14:09 10° N 18:18:35 58° ENE 18:23:00 10° SSE
NOSS 2-1 (E) 3.7 18:15:16 10° SSW 18:19:03 47° ESE 18:19:30 45° ESE
CZ-4 R/B 3.9 18:17:25 10° SSW 18:20:51 25° W 18:24:15 10° NW
Meteor 1-15 Rocket 4.3 18:17:55 10° N 18:23:48 62° ENE 18:29:33 10° SSE
Cosmos 1535 Rocket 4.4 18:17:48 10° N 18:24:11 86° E 18:30:24 10° S
COSMO-SKYMED 1 2.4 18:24:15 35° NNE 18:26:00 73° ESE 18:30:20 10° S
USA 234 3.2 18:28:02 34° ENE 18:31:10 80° SE 18:37:43 10° SW
Meteor 2-9 Rocket 4.0 18:25:46 10° N 18:31:16 83° ENE 18:36:36 10° SSE
Cosmos 1844 Rocket 4.4 18:27:45 10° W 18:32:29 27° NW 18:36:55 11° NNE
ERBS 3.3 18:30:42 10° NW 18:33:07 39° NNW 18:33:07 39° NNW
Meteor 1-13 Rocket 4.4 18:30:23 10° SSW 18:36:08 75° WNW 18:42:02 10° N
Cosmos 2369 Rocket 4.4 18:32:29 10° SSE 18:32:38 11° SE 18:32:38 11° SE
Meteor 1-23 Rocket 4.1 18:31:43 10° S 18:37:19 63° E 18:39:33 36° NNE
Cosmos 407 Rocket 3.3 18:34:15 10° NNW 18:39:25 82° ENE 18:42:47 22° SSE
Meteor 2-4 Rocket 3.4 18:35:42 10° S 18:41:02 75° E 18:43:23 35° NNE
Cosmos 921 Rocket 3.3 18:36:57 10° SSW 18:41:12 66° WNW 18:42:38 40° N
Spot 2 Rocket 4.1 18:42:50 39° NNE 18:42:50 39° NNE 18:46:23 10° N
Cosmos 1025 Rocket 2.9 18:37:05 10° S 18:41:28 85° E 18:42:06 65° NNE
Cosmos 2056 Rocket 3.5 18:39:05 10° S 18:44:21 61° ESE 18:44:38 60° E
NOSS 3-4 (A) 4.2 18:41:33 10° NW 18:48:23 63° SW 18:55:40 10° SSE
NOSS 3-4 (C) 4.2 18:41:39 10° NW 18:48:30 63° SW 18:55:46 10° SSE
Cosmos 1821 Rocket 4.3 18:42:49 10° NNW 18:48:52 66° W 18:54:53 10° S
NOAA 12 4.1 18:44:19 10° SSE 18:49:35 82° WSW 18:54:53 10° NNW
Cosmos 676 Rocket 3.8 18:44:32 10° NNW 18:49:47 74° ENE 18:50:14 68° ESE
Cosmos 1153 Rocket 4.4 18:45:00 10° N 18:51:05 57° ENE 18:51:38 55° E
Cosmos 2058 Rocket 4.5 18:47:59 10° N 18:50:06 27° N 18:50:06 27° N
Cosmos 1954 Rocket 4.1 18:49:39 10° NNW 18:54:02 57° NNE 18:54:02 57° NNE
CZ-3A R/B 3.3 18:45:51 10° W 18:56:24 56° N 18:57:35 46° NNE
Cosmos 1624 Rocket 3.8 18:52:08 10° SSW 18:57:19 83° ESE 18:57:33 80° ENE
Cosmos 1605 Rocket 3.9 18:53:16 10° N 18:59:38 89° E 19:05:51 10° S
Cosmos 1666 4.0 18:58:22 10° NNW 19:02:01 41° W 19:05:41 10° SSW
Cosmos 1371 Rocket 4.1 18:57:45 10° SSW 19:03:07 76° WNW 19:04:11 57° N
Cosmos 2297 4.4 19:01:32 10° SW 19:06:59 49° NW 19:09:12 32° N
ISS -0.8 19:04:48 10° WNW 19:06:03 21° WNW 19:06:03 21° WNW
SL-8 R/B 4.0 19:03:50 10° W 19:07:58 65° WSW 19:07:58 65° WSW
Cosmos 2278 Rocket 3.9 19:12:07 10° W 19:16:51 27° NW 19:19:36 19° N
GEOS 3 Rocket 4.4 19:22:24 38° SSW 19:23:43 46° SW 19:28:40 10° NW
Cosmos 1727 Rocket 4.4 19:35:48 10° SSW 19:40:32 54° SSW 19:40:32 54° SSW
FALCON 9 R/B 4.3 19:38:59 10° WSW 19:51:57 28° SSW 19:53:49 26° S
USA 234 4.0 20:15:23 47° NW 20:15:23 47° NW 20:20:23 10° W
CZ-3B DEB 3.8 20:14:49 10° W 20:21:41 67° N 20:21:48 66° N
